HAZ6331 ZSSS-ZBYN

Flight info

Callsign HAZ6331
Flight time N/A
Altitude 27600
Route POMOK G330 PIMOL V14 NOBEM W73 VEMEX W163 HFE B208 ANPIG
Aircraft A20N/M-SD1T1E2E3FGILRWXY/LB1D1

Departure

Time 2026-05-07 11:30
Airport Shanghai Hongqiao International Airport (ZSSS)

Arrival

Time N/A
Airport Taiyuan Wusu International Airport (ZBYN)
Time Latitude Longitude Altitude Speed Heading
2026-05-07 11:12 31.19386 121.32867 15 ft 0 kts 277°
2026-05-07 11:22 31.19386 121.32870 15 ft 1 kts 278°
2026-05-07 11:22 31.19384 121.32886 15 ft 1 kts 276°
2026-05-07 11:23 31.19383 121.32898 15 ft 2 kts 260°
2026-05-07 11:23 31.19389 121.32914 15 ft 2 kts 227°
2026-05-07 11:23 31.19402 121.32924 15 ft 2 kts 195°
2026-05-07 11:23 31.19410 121.32925 15 ft 1 kts 177°
2026-05-07 11:24 31.19416 121.32925 15 ft 0 kts 177°
2026-05-07 11:25 31.19412 121.32925 15 ft 1 kts 175°
2026-05-07 11:26 31.19391 121.32932 15 ft 4 kts 148°
2026-05-07 11:26 31.19371 121.32976 14 ft 7 kts 128°
2026-05-07 11:26 31.19312 121.32996 15 ft 10 kts 173°
2026-05-07 11:26 31.19228 121.33002 15 ft 13 kts 177°
2026-05-07 11:27 31.19126 121.33007 14 ft 15 kts 177°
2026-05-07 11:27 31.19008 121.33013 15 ft 17 kts 177°
2026-05-07 11:27 31.18877 121.33019 14 ft 19 kts 177°
2026-05-07 11:27 31.18736 121.33028 15 ft 21 kts 177°
2026-05-07 11:28 31.18584 121.33038 14 ft 22 kts 177°
2026-05-07 11:28 31.18427 121.33050 15 ft 22 kts 182°
2026-05-07 11:28 31.18335 121.33105 14 ft 15 kts 97°
2026-05-07 11:28 31.18339 121.33223 15 ft 14 kts 85°
2026-05-07 11:29 31.18378 121.33315 15 ft 13 kts 21°
2026-05-07 11:29 31.18470 121.33318 15 ft 13 kts 357°
2026-05-07 11:29 31.18754 121.33303 15 ft 78 kts 358°
2026-05-07 11:29 31.19531 121.33258 17 ft 141 kts 359°
2026-05-07 11:30 31.20615 121.33190 371 ft 163 kts 358°
2026-05-07 11:30 31.21798 121.33116 886 ft 183 kts 359°
2026-05-07 11:30 31.23134 121.33079 1401 ft 203 kts 359°
2026-05-07 11:30 31.24619 121.32985 1983 ft 222 kts 358°
2026-05-07 11:31 31.26145 121.32883 2531 ft 219 kts 359°
2026-05-07 11:31 31.27665 121.32769 3019 ft 224 kts 352°
2026-05-07 11:31 31.29092 121.32000 3462 ft 233 kts 319°
2026-05-07 11:31 31.30219 121.30617 3973 ft 237 kts 314°
2026-05-07 11:32 31.32447 121.27737 5056 ft 243 kts 314°
2026-05-07 11:32 31.33636 121.26225 5642 ft 261 kts 313°
2026-05-07 11:32 31.34881 121.24618 6140 ft 275 kts 312°
2026-05-07 11:33 31.36199 121.22920 6651 ft 294 kts 312°
2026-05-07 11:33 31.37570 121.21050 7148 ft 312 kts 307°
2026-05-07 11:33 31.38873 121.18929 7657 ft 324 kts 304°
2026-05-07 11:33 31.40152 121.16768 8142 ft 327 kts 304°
2026-05-07 11:34 31.41466 121.14556 8650 ft 329 kts 304°
2026-05-07 11:34 31.42777 121.12369 9154 ft 330 kts 304°
2026-05-07 11:34 31.44090 121.10194 9644 ft 332 kts 304°
2026-05-07 11:34 31.45427 121.07989 10123 ft 334 kts 304°
2026-05-07 11:35 31.46780 121.05761 10618 ft 337 kts 304°
2026-05-07 11:35 31.48134 121.03537 11104 ft 338 kts 304°
2026-05-07 11:35 31.49522 121.01257 11610 ft 340 kts 304°
2026-05-07 11:35 31.50883 120.99022 12088 ft 342 kts 303°
2026-05-07 11:36 31.52274 120.96736 12565 ft 344 kts 304°
2026-05-07 11:36 31.53655 120.94466 13046 ft 346 kts 303°
2026-05-07 11:36 31.55050 120.92173 13529 ft 348 kts 303°
2026-05-07 11:36 31.56456 120.89860 14005 ft 350 kts 303°
2026-05-07 11:37 31.57863 120.87542 14480 ft 352 kts 303°
2026-05-07 11:37 31.59295 120.85185 14963 ft 354 kts 303°
2026-05-07 11:37 31.60714 120.82846 15432 ft 356 kts 303°
2026-05-07 11:37 31.62150 120.80476 15899 ft 357 kts 303°
2026-05-07 11:38 31.63598 120.78088 16375 ft 360 kts 303°
2026-05-07 11:38 31.65041 120.75706 16842 ft 363 kts 303°
2026-05-07 11:38 31.66509 120.73284 17308 ft 364 kts 302°
2026-05-07 11:38 31.67977 120.70856 17765 ft 366 kts 302°
2026-05-07 11:39 31.69459 120.68406 18240 ft 369 kts 302°
2026-05-07 11:39 31.70933 120.65964 18714 ft 369 kts 302°
2026-05-07 11:39 31.72426 120.63495 19186 ft 371 kts 302°
2026-05-07 11:39 31.73910 120.61037 19651 ft 373 kts 302°
2026-05-07 11:40 31.75420 120.58530 20117 ft 375 kts 302°
2026-05-07 11:40 31.76927 120.56029 20580 ft 376 kts 302°
2026-05-07 11:40 31.78432 120.53531 21045 ft 378 kts 302°
2026-05-07 11:40 31.79950 120.51008 21512 ft 380 kts 302°
2026-05-07 11:41 31.81475 120.48473 21977 ft 382 kts 302°
2026-05-07 11:41 31.82999 120.45937 22440 ft 383 kts 302°
2026-05-07 11:41 31.84558 120.43344 22923 ft 385 kts 302°
2026-05-07 11:41 31.86094 120.40784 23399 ft 387 kts 302°
2026-05-07 11:42 31.87635 120.38218 23873 ft 389 kts 302°
2026-05-07 11:42 31.89203 120.35603 24368 ft 391 kts 302°
2026-05-07 11:42 31.90757 120.33004 24873 ft 392 kts 301°
2026-05-07 11:42 31.92337 120.30353 25382 ft 394 kts 301°
2026-05-07 11:43 31.93912 120.27708 25885 ft 395 kts 301°
2026-05-07 11:43 31.95485 120.25072 26388 ft 396 kts 302°
2026-05-07 11:43 31.97060 120.22438 26889 ft 396 kts 301°
2026-05-07 11:43 31.98646 120.19781 27393 ft 396 kts 301°
2026-05-07 11:44 32.00232 120.17124 27708 ft 401 kts 301°
2026-05-07 11:44 32.01838 120.14426 27754 ft 405 kts 301°
2026-05-07 11:44 32.03455 120.11710 27763 ft 405 kts 301°
2026-05-07 11:44 32.05072 120.08997 27769 ft 405 kts 302°
2026-05-07 11:45 32.06692 120.06276 27771 ft 405 kts 301°
2026-05-07 11:45 32.08316 120.03549 27773 ft 405 kts 301°
2026-05-07 11:45 32.09926 120.00842 27776 ft 405 kts 301°
2026-05-07 11:45 32.11554 119.98118 27778 ft 405 kts 301°
2026-05-07 11:46 32.13182 119.95403 27778 ft 405 kts 302°
2026-05-07 11:46 32.14804 119.92687 27778 ft 405 kts 301°
2026-05-07 11:46 32.16410 119.89987 27777 ft 405 kts 301°
2026-05-07 11:46 32.18008 119.87290 27778 ft 405 kts 302°
2026-05-07 11:47 32.19631 119.84547 27777 ft 405 kts 301°
2026-05-07 11:47 32.21244 119.81823 27747 ft 405 kts 301°
2026-05-07 11:47 32.22782 119.79093 27711 ft 401 kts 295°
2026-05-07 11:47 32.23622 119.76007 27693 ft 396 kts 277°
2026-05-07 11:48 32.23537 119.72755 27686 ft 400 kts 261°
2026-05-07 11:48 32.22733 119.69580 27691 ft 403 kts 255°
2026-05-07 11:48 32.21887 119.66430 27686 ft 402 kts 256°
2026-05-07 11:48 32.21068 119.63314 27686 ft 403 kts 256°
2026-05-07 11:49 32.20229 119.60136 27683 ft 402 kts 256°
2026-05-07 11:49 32.19399 119.57017 27684 ft 407 kts 256°
2026-05-07 11:49 32.18529 119.53768 27682 ft 417 kts 255°
2026-05-07 11:49 32.17640 119.50472 27681 ft 426 kts 255°
2026-05-07 11:50 32.16753 119.47171 27680 ft 428 kts 256°
2026-05-07 11:50 32.15858 119.43810 27681 ft 429 kts 256°
2026-05-07 11:50 32.14964 119.40458 27682 ft 429 kts 256°
2026-05-07 11:50 32.14063 119.37071 27683 ft 429 kts 256°
2026-05-07 11:51 32.13177 119.33732 27688 ft 429 kts 255°
2026-05-07 11:51 32.12294 119.30402 27688 ft 429 kts 255°
2026-05-07 11:51 32.11399 119.27034 27686 ft 428 kts 255°
2026-05-07 11:51 32.10506 119.23676 27687 ft 428 kts 255°
2026-05-07 11:52 32.09614 119.20329 27686 ft 428 kts 255°
2026-05-07 11:52 32.08733 119.17030 27687 ft 428 kts 255°
2026-05-07 11:52 32.07837 119.13674 27690 ft 428 kts 255°
2026-05-07 11:52 32.06939 119.10323 27691 ft 428 kts 255°
2026-05-07 11:53 32.06054 119.07024 27693 ft 428 kts 255°
2026-05-07 11:53 32.05155 119.03675 27692 ft 427 kts 255°
2026-05-07 11:53 32.04259 119.00341 27691 ft 428 kts 255°
2026-05-07 11:53 32.03358 118.96982 27693 ft 428 kts 255°
2026-05-07 11:54 32.02468 118.93677 27693 ft 430 kts 255°
2026-05-07 11:54 32.01558 118.90298 27691 ft 433 kts 255°
2026-05-07 11:54 32.00650 118.86931 27690 ft 433 kts 256°
2026-05-07 11:54 31.99732 118.83559 27691 ft 434 kts 255°
2026-05-07 11:55 31.98690 118.80230 27692 ft 435 kts 251°
2026-05-07 11:55 31.97488 118.76963 27692 ft 436 kts 250°
2026-05-07 11:55 31.96250 118.73713 27689 ft 437 kts 250°
2026-05-07 11:55 31.94997 118.70428 27691 ft 437 kts 250°
2026-05-07 11:56 31.93767 118.67216 27689 ft 438 kts 250°
2026-05-07 11:56 31.92509 118.63940 27691 ft 439 kts 249°
2026-05-07 11:56 31.91251 118.60667 27691 ft 439 kts 250°
2026-05-07 11:56 31.89991 118.57388 27687 ft 439 kts 250°
2026-05-07 11:57 31.88737 118.54155 27689 ft 438 kts 249°
2026-05-07 11:57 31.87449 118.50844 27689 ft 438 kts 249°
2026-05-07 11:57 31.86180 118.47571 27690 ft 439 kts 250°
2026-05-07 11:57 31.84923 118.44312 27689 ft 438 kts 250°
2026-05-07 11:58 31.83670 118.41061 27687 ft 438 kts 250°
2026-05-07 11:58 31.82415 118.37806 27688 ft 438 kts 250°
2026-05-07 11:58 31.81167 118.34564 27689 ft 438 kts 250°
2026-05-07 11:58 31.80155 118.31171 27688 ft 434 kts 257°
2026-05-07 11:59 31.79561 118.27708 27689 ft 431 kts 264°
2026-05-07 11:59 31.79344 118.24239 27695 ft 430 kts 269°
2026-05-07 11:59 31.79262 118.20732 27692 ft 430 kts 270°
2026-05-07 11:59 31.79198 118.17209 27691 ft 430 kts 270°
2026-05-07 12:00 31.79135 118.13702 27689 ft 430 kts 270°
2026-05-07 12:00 31.79070 118.10203 27689 ft 430 kts 270°
2026-05-07 12:00 31.79002 118.06692 27687 ft 430 kts 270°
2026-05-07 12:00 31.78934 118.03187 27688 ft 430 kts 270°
2026-05-07 12:01 31.78869 117.99679 27691 ft 430 kts 270°
2026-05-07 12:01 31.78804 117.96170 27689 ft 431 kts 270°
2026-05-07 12:01 31.78739 117.92672 27691 ft 430 kts 270°
2026-05-07 12:01 31.78674 117.89177 27692 ft 430 kts 270°
2026-05-07 12:02 31.78608 117.85667 27692 ft 431 kts 270°
2026-05-07 12:02 31.78541 117.82137 27691 ft 430 kts 270°
2026-05-07 12:02 31.78473 117.78610 27692 ft 430 kts 270°
2026-05-07 12:02 31.78406 117.75146 27696 ft 430 kts 270°
2026-05-07 12:03 31.78337 117.71641 27700 ft 430 kts 270°
2026-05-07 12:03 31.78268 117.68147 27704 ft 429 kts 270°
2026-05-07 12:03 31.78198 117.64653 27707 ft 429 kts 269°
2026-05-07 12:03 31.78125 117.61150 27712 ft 429 kts 269°
2026-05-07 12:04 31.78054 117.57649 27710 ft 429 kts 270°
2026-05-07 12:04 31.77981 117.54139 27711 ft 429 kts 270°
2026-05-07 12:04 31.77909 117.50626 27710 ft 429 kts 269°
2026-05-07 12:04 31.77836 117.47160 27710 ft 429 kts 269°
2026-05-07 12:05 31.77764 117.43662 27711 ft 429 kts 269°
2026-05-07 12:05 31.77687 117.40167 27712 ft 429 kts 269°
2026-05-07 12:05 31.77610 117.36659 27713 ft 429 kts 269°
2026-05-07 12:05 31.77676 117.33178 27699 ft 429 kts 277°
2026-05-07 12:06 31.78478 117.29804 27710 ft 432 kts 290°
2026-05-07 12:06 31.79999 117.26750 27710 ft 439 kts 303°
2026-05-07 12:06 31.81946 117.24006 27712 ft 441 kts 306°
2026-05-07 12:06 31.83929 117.21243 27710 ft 441 kts 305°
2026-05-07 12:07 31.85918 117.18477 27704 ft 441 kts 306°
2026-05-07 12:07 31.87878 117.15754 27700 ft 441 kts 306°
2026-05-07 12:07 31.89859 117.13005 27700 ft 441 kts 306°
2026-05-07 12:07 31.91852 117.10246 27698 ft 441 kts 306°
2026-05-07 12:08 31.93836 117.07497 27697 ft 441 kts 306°
2026-05-07 12:08 31.95828 117.04734 27698 ft 441 kts 306°
2026-05-07 12:08 31.97793 117.02007 27699 ft 441 kts 306°
2026-05-07 12:08 31.99769 116.99258 27700 ft 441 kts 306°
2026-05-07 12:09 32.01757 116.96497 27699 ft 441 kts 306°
2026-05-07 12:09 32.03745 116.93735 27697 ft 441 kts 306°
2026-05-07 12:09 32.05721 116.90995 27699 ft 441 kts 306°
2026-05-07 12:09 32.07712 116.88231 27700 ft 441 kts 306°
2026-05-07 12:10 32.09688 116.85489 27702 ft 442 kts 306°
2026-05-07 12:10 32.11693 116.82716 27703 ft 442 kts 306°
2026-05-07 12:10 32.13686 116.79971 27703 ft 441 kts 306°
2026-05-07 12:10 32.15670 116.77226 27703 ft 441 kts 306°
2026-05-07 12:11 32.17655 116.74465 27702 ft 441 kts 306°
2026-05-07 12:11 32.19624 116.71699 27703 ft 440 kts 305°
2026-05-07 12:11 32.21521 116.68926 27705 ft 439 kts 304°
2026-05-07 12:11 32.23424 116.66105 27705 ft 439 kts 304°
2026-05-07 12:12 32.25326 116.63279 27705 ft 439 kts 304°
2026-05-07 12:12 32.27220 116.60471 27707 ft 439 kts 304°
2026-05-07 12:12 32.29149 116.57616 27708 ft 439 kts 304°
2026-05-07 12:12 32.31042 116.54815 27708 ft 438 kts 304°
2026-05-07 12:13 32.35121 116.48774 27712 ft 439 kts 304°
2026-05-07 12:13 32.37030 116.45960 27711 ft 439 kts 305°
2026-05-07 12:13 32.38976 116.43184 27713 ft 440 kts 305°
2026-05-07 12:14 32.40934 116.40421 27715 ft 438 kts 306°
2026-05-07 12:14 32.42886 116.37669 27714 ft 438 kts 305°
2026-05-07 12:14 32.44843 116.34901 27715 ft 438 kts 305°
2026-05-07 12:14 32.46769 116.32162 27715 ft 438 kts 305°
2026-05-07 12:15 32.48720 116.29378 27715 ft 438 kts 305°
2026-05-07 12:15 32.50654 116.26621 27716 ft 438 kts 305°
2026-05-07 12:15 32.52615 116.23827 27720 ft 437 kts 305°
2026-05-07 12:15 32.54563 116.21054 27724 ft 436 kts 305°
2026-05-07 12:16 32.56482 116.18319 27725 ft 436 kts 304°
2026-05-07 12:16 32.58425 116.15563 27723 ft 436 kts 305°
2026-05-07 12:16 32.60395 116.12790 27722 ft 437 kts 305°
2026-05-07 12:16 32.62330 116.10067 27723 ft 437 kts 305°
2026-05-07 12:17 32.64307 116.07282 27724 ft 437 kts 305°
2026-05-07 12:17 32.66243 116.04553 27726 ft 436 kts 305°
2026-05-07 12:17 32.68190 116.01812 27728 ft 435 kts 305°
2026-05-07 12:17 32.70158 115.99039 27730 ft 435 kts 305°
2026-05-07 12:18 32.72089 115.96309 27730 ft 434 kts 305°
2026-05-07 12:18 32.74017 115.93581 27730 ft 434 kts 305°
2026-05-07 12:18 32.75950 115.90847 27731 ft 433 kts 305°
2026-05-07 12:18 32.77888 115.88106 27730 ft 434 kts 305°
2026-05-07 12:19 32.79839 115.85343 27729 ft 434 kts 305°
2026-05-07 12:19 32.81777 115.82601 27731 ft 435 kts 305°
2026-05-07 12:19 32.83719 115.79848 27732 ft 434 kts 305°
2026-05-07 12:19 32.85650 115.77103 27732 ft 433 kts 305°
2026-05-07 12:20 32.87578 115.74364 27732 ft 433 kts 305°
2026-05-07 12:20 32.89521 115.71632 27734 ft 432 kts 306°
2026-05-07 12:20 32.91480 115.68949 27734 ft 433 kts 306°
2026-05-07 12:20 32.93469 115.66237 27734 ft 433 kts 306°
2026-05-07 12:21 32.95446 115.63545 27735 ft 433 kts 306°
2026-05-07 12:21 32.97407 115.60867 27735 ft 433 kts 306°
2026-05-07 12:21 32.99390 115.58157 27737 ft 433 kts 306°
2026-05-07 12:21 33.01355 115.55466 27735 ft 434 kts 306°
2026-05-07 12:22 33.03354 115.52726 27735 ft 434 kts 306°
2026-05-07 12:22 33.05319 115.50032 27733 ft 434 kts 306°
2026-05-07 12:22 33.07287 115.47333 27739 ft 433 kts 306°
2026-05-07 12:22 33.09278 115.44596 27737 ft 434 kts 306°
2026-05-07 12:23 33.11251 115.41888 27742 ft 434 kts 306°
2026-05-07 12:23 33.13235 115.39179 27740 ft 434 kts 306°
2026-05-07 12:23 33.15234 115.36448 27741 ft 435 kts 306°
2026-05-07 12:23 33.17220 115.33723 27743 ft 435 kts 306°
2026-05-07 12:24 33.19196 115.30996 27742 ft 435 kts 305°
2026-05-07 12:24 33.21164 115.28270 27744 ft 434 kts 306°
2026-05-07 12:24 33.23136 115.25538 27744 ft 435 kts 306°
2026-05-07 12:24 33.25093 115.22829 27740 ft 435 kts 306°
2026-05-07 12:25 33.27061 115.20106 27738 ft 435 kts 306°
2026-05-07 12:25 33.29046 115.17359 27738 ft 435 kts 306°
2026-05-07 12:25 33.31016 115.14626 27745 ft 434 kts 306°
2026-05-07 12:25 33.32986 115.11895 27743 ft 434 kts 306°
2026-05-07 12:26 33.34965 115.09149 27744 ft 435 kts 306°
2026-05-07 12:26 33.36959 115.06383 27748 ft 436 kts 306°
2026-05-07 12:26 33.38924 115.03654 27746 ft 436 kts 306°
2026-05-07 12:26 33.40905 115.00900 27745 ft 435 kts 306°
2026-05-07 12:27 33.42881 114.98152 27742 ft 435 kts 306°
2026-05-07 12:27 33.44821 114.95448 27745 ft 434 kts 306°
2026-05-07 12:27 33.46811 114.92679 27748 ft 434 kts 306°
2026-05-07 12:27 33.48775 114.89938 27744 ft 435 kts 306°
2026-05-07 12:28 33.50724 114.87220 27747 ft 435 kts 306°
2026-05-07 12:28 33.52705 114.84457 27750 ft 435 kts 306°
2026-05-07 12:28 33.54650 114.81738 27752 ft 435 kts 306°
2026-05-07 12:28 33.56624 114.78973 27758 ft 435 kts 306°
2026-05-07 12:29 33.58580 114.76237 27760 ft 435 kts 306°
2026-05-07 12:29 33.60578 114.73471 27758 ft 435 kts 307°
2026-05-07 12:29 33.62575 114.70770 27759 ft 435 kts 307°
2026-05-07 12:29 33.64600 114.68097 27761 ft 437 kts 309°
2026-05-07 12:30 33.66748 114.65534 27766 ft 439 kts 312°
2026-05-07 12:30 33.69039 114.63093 27768 ft 441 kts 315°
2026-05-07 12:30 33.71421 114.60771 27770 ft 442 kts 316°
2026-05-07 12:30 33.73826 114.58465 27770 ft 443 kts 316°
2026-05-07 12:31 33.76237 114.56158 27768 ft 443 kts 316°
2026-05-07 12:31 33.78645 114.53854 27774 ft 442 kts 316°
2026-05-07 12:31 33.81075 114.51530 27771 ft 441 kts 316°
2026-05-07 12:31 33.83473 114.49240 27772 ft 442 kts 316°
2026-05-07 12:32 33.85892 114.46958 27775 ft 443 kts 317°
2026-05-07 12:32 33.88309 114.44685 27772 ft 443 kts 317°
2026-05-07 12:32 33.90757 114.42384 27777 ft 444 kts 317°
2026-05-07 12:32 33.93174 114.40108 27779 ft 443 kts 317°
2026-05-07 12:33 33.98025 114.35537 27780 ft 444 kts 317°
2026-05-07 12:33 34.00483 114.33210 27777 ft 443 kts 316°
2026-05-07 12:33 34.02900 114.30913 27777 ft 444 kts 316°
2026-05-07 12:34 34.05318 114.28613 27780 ft 442 kts 316°
2026-05-07 12:34 34.07717 114.26332 27781 ft 441 kts 316°
2026-05-07 12:34 34.10141 114.24032 27777 ft 442 kts 316°
2026-05-07 12:34 34.12556 114.21750 27777 ft 442 kts 316°
2026-05-07 12:35 34.14984 114.19462 27776 ft 442 kts 317°
2026-05-07 12:35 34.17404 114.17177 27773 ft 442 kts 316°
2026-05-07 12:35 34.19821 114.14888 27777 ft 442 kts 316°
2026-05-07 12:35 34.22239 114.12590 27784 ft 442 kts 316°
2026-05-07 12:36 34.24630 114.10318 27785 ft 441 kts 316°
2026-05-07 12:36 34.27049 114.08018 27787 ft 441 kts 316°
2026-05-07 12:36 34.29462 114.05715 27778 ft 440 kts 316°
2026-05-07 12:36 34.31873 114.03416 27779 ft 442 kts 316°
2026-05-07 12:37 34.34266 114.01131 27787 ft 440 kts 316°
2026-05-07 12:37 34.36668 113.98840 27779 ft 440 kts 316°
2026-05-07 12:37 34.39066 113.96549 27777 ft 441 kts 316°
2026-05-07 12:37 34.41495 113.94229 27781 ft 440 kts 316°
2026-05-07 12:38 34.43877 113.91947 27778 ft 440 kts 317°
2026-05-07 12:38 34.46283 113.89642 27778 ft 438 kts 316°
2026-05-07 12:38 34.48667 113.87368 27780 ft 439 kts 318°
2026-05-07 12:38 34.51245 113.85342 27782 ft 446 kts 325°
2026-05-07 12:39 34.54094 113.83733 27775 ft 454 kts 333°
2026-05-07 12:39 34.57092 113.82567 27786 ft 457 kts 337°
2026-05-07 12:39 34.60159 113.81535 27782 ft 458 kts 338°
2026-05-07 12:39 34.63229 113.80530 27775 ft 459 kts 338°
2026-05-07 12:40 34.66345 113.79512 27781 ft 458 kts 338°
2026-05-07 12:40 34.69390 113.78513 27779 ft 457 kts 338°
2026-05-07 12:40 34.72451 113.77505 27783 ft 456 kts 338°
2026-05-07 12:40 34.75542 113.76486 27782 ft 456 kts 338°
2026-05-07 12:41 34.78616 113.75468 27775 ft 455 kts 338°
2026-05-07 12:41 34.81670 113.74458 27779 ft 455 kts 338°
2026-05-07 12:41 34.84701 113.73445 27781 ft 454 kts 337°
2026-05-07 12:41 34.87704 113.72285 27776 ft 451 kts 334°
2026-05-07 12:42 34.90631 113.71021 27780 ft 451 kts 334°
2026-05-07 12:42 34.93591 113.69717 27779 ft 451 kts 334°
2026-05-07 12:42 34.96548 113.68411 27779 ft 450 kts 334°
2026-05-07 12:42 34.99505 113.67103 27775 ft 451 kts 334°
2026-05-07 12:43 35.02433 113.65807 27772 ft 449 kts 334°
2026-05-07 12:43 35.05371 113.64511 27769 ft 450 kts 334°
2026-05-07 12:43 35.08344 113.63198 27769 ft 450 kts 334°
2026-05-07 12:43 35.11279 113.61900 27770 ft 449 kts 334°
2026-05-07 12:44 35.14220 113.60609 27770 ft 449 kts 334°
2026-05-07 12:44 35.17134 113.59330 27770 ft 449 kts 334°
2026-05-07 12:44 35.20084 113.58028 27767 ft 449 kts 334°
2026-05-07 12:44 35.23023 113.56730 27767 ft 449 kts 333°
2026-05-07 12:45 35.25965 113.55428 27767 ft 449 kts 334°
2026-05-07 12:45 35.28880 113.54134 27770 ft 450 kts 334°
2026-05-07 12:45 35.31830 113.52822 27775 ft 448 kts 333°
2026-05-07 12:45 35.34748 113.51524 27780 ft 449 kts 334°
2026-05-07 12:46 35.37697 113.50211 27788 ft 449 kts 334°
2026-05-07 12:46 35.40641 113.48898 27796 ft 450 kts 333°
2026-05-07 12:46 35.43569 113.47595 27800 ft 449 kts 333°
2026-05-07 12:46 35.46490 113.46296 27803 ft 449 kts 333°
2026-05-07 12:47 35.49464 113.44978 27806 ft 448 kts 334°
2026-05-07 12:47 35.52390 113.43682 27602 ft 449 kts 334°
2026-05-07 12:47 35.55325 113.42382 27286 ft 448 kts 334°
2026-05-07 12:47 35.58228 113.41094 26970 ft 449 kts 334°
2026-05-07 12:48 35.61205 113.39772 26650 ft 451 kts 334°
2026-05-07 12:48 35.64136 113.38467 26332 ft 450 kts 334°
2026-05-07 12:48 35.67075 113.37157 26012 ft 450 kts 334°
2026-05-07 12:48 35.70045 113.35832 25688 ft 452 kts 335°
2026-05-07 12:49 35.72963 113.34526 25349 ft 451 kts 334°
2026-05-07 12:49 35.75937 113.33185 25026 ft 452 kts 334°
2026-05-07 12:49 35.78878 113.31860 24709 ft 452 kts 334°
2026-05-07 12:49 35.81814 113.30538 24426 ft 450 kts 335°
2026-05-07 12:50 35.84773 113.29211 24041 ft 450 kts 335°
2026-05-07 12:50 35.87720 113.27891 23777 ft 448 kts 335°
2026-05-07 12:50 35.90621 113.26592 23557 ft 446 kts 335°
2026-05-07 12:50 35.93565 113.25275 23361 ft 443 kts 335°
2026-05-07 12:51 35.96448 113.23985 23165 ft 441 kts 335°
2026-05-07 12:51 35.99292 113.22714 22981 ft 438 kts 336°
2026-05-07 12:51 36.02177 113.21423 22807 ft 436 kts 336°
2026-05-07 12:51 36.05011 113.20155 22634 ft 435 kts 336°
2026-05-07 12:52 36.07879 113.18870 22475 ft 434 kts 336°
2026-05-07 12:52 36.10703 113.17606 22312 ft 433 kts 336°
2026-05-07 12:52 36.13508 113.16356 22188 ft 429 kts 336°
2026-05-07 12:52 36.16283 113.15123 21966 ft 410 kts 336°
2026-05-07 12:53 36.18905 113.13950 21940 ft 398 kts 336°
2026-05-07 12:53 36.21499 113.12784 21930 ft 397 kts 336°
2026-05-07 12:53 36.24108 113.11681 21938 ft 399 kts 339°
2026-05-07 12:53 36.26777 113.10751 21941 ft 398 kts 341°
2026-05-07 12:54 36.29476 113.09865 21922 ft 398 kts 341°
2026-05-07 12:54 36.32153 113.08995 21926 ft 398 kts 341°
2026-05-07 12:54 36.34815 113.08131 21933 ft 399 kts 341°
2026-05-07 12:54 36.37528 113.07250 21788 ft 397 kts 341°
2026-05-07 12:55 36.40183 113.06387 21625 ft 396 kts 341°
2026-05-07 12:55 36.42841 113.05524 21456 ft 395 kts 342°
2026-05-07 12:55 36.45517 113.04652 21282 ft 394 kts 342°
2026-05-07 12:55 36.48132 113.03802 21118 ft 393 kts 342°
2026-05-07 12:56 36.50789 113.02934 20951 ft 392 kts 342°
2026-05-07 12:56 36.53421 113.02076 20787 ft 391 kts 342°
2026-05-07 12:56 36.56059 113.01216 20624 ft 389 kts 342°
2026-05-07 12:56 36.58678 113.00362 20447 ft 388 kts 342°
2026-05-07 12:57 36.61268 112.99516 20138 ft 378 kts 342°
2026-05-07 12:57 36.63759 112.98705 19951 ft 363 kts 342°
2026-05-07 12:57 36.66159 112.97923 19948 ft 356 kts 342°
2026-05-07 12:57 36.68546 112.97141 19942 ft 356 kts 342°
2026-05-07 12:58 36.70968 112.96347 19945 ft 356 kts 342°
2026-05-07 12:58 36.73355 112.95564 19941 ft 355 kts 342°
2026-05-07 12:58 36.75751 112.94778 19942 ft 355 kts 342°
2026-05-07 12:58 36.78140 112.93993 19941 ft 355 kts 342°
2026-05-07 12:59 36.80517 112.93211 19943 ft 355 kts 342°
2026-05-07 12:59 36.82901 112.92429 19881 ft 355 kts 342°
2026-05-07 12:59 36.85274 112.91650 19672 ft 354 kts 342°
2026-05-07 12:59 36.87664 112.90864 19468 ft 353 kts 343°
2026-05-07 13:00 36.90029 112.90084 19268 ft 352 kts 343°
2026-05-07 13:00 36.92401 112.89304 19047 ft 349 kts 343°
2026-05-07 13:00 36.94729 112.88540 18751 ft 339 kts 343°
2026-05-07 13:00 36.96965 112.87804 18432 ft 330 kts 343°
2026-05-07 13:01 36.99164 112.87080 18060 ft 323 kts 343°
2026-05-07 13:01 37.01320 112.86369 17698 ft 319 kts 343°
2026-05-07 13:01 37.03463 112.85658 17342 ft 319 kts 343°
2026-05-07 13:01 37.05629 112.84940 16975 ft 318 kts 343°
2026-05-07 13:02 37.07746 112.84225 16609 ft 314 kts 343°
2026-05-07 13:02 37.09839 112.83515 16250 ft 308 kts 343°
2026-05-07 13:02 37.11882 112.82825 15894 ft 303 kts 343°
2026-05-07 13:02 37.13924 112.82137 15522 ft 299 kts 344°
2026-05-07 13:03 37.15916 112.81464 15171 ft 294 kts 344°
2026-05-07 13:03 37.17849 112.80811 15064 ft 281 kts 344°
2026-05-07 13:03 37.19712 112.80182 15060 ft 277 kts 344°
2026-05-07 13:03 37.21589 112.79548 15058 ft 277 kts 344°
2026-05-07 13:04 37.23432 112.78924 15055 ft 278 kts 344°
2026-05-07 13:04 37.25307 112.78287 15053 ft 278 kts 344°
2026-05-07 13:04 37.27164 112.77656 14975 ft 279 kts 344°
2026-05-07 13:04 37.29039 112.77018 14609 ft 277 kts 344°
2026-05-07 13:05 37.30890 112.76387 14245 ft 275 kts 345°
2026-05-07 13:05 37.32737 112.75777 13865 ft 273 kts 347°
2026-05-07 13:05 37.34592 112.75386 13501 ft 271 kts 353°
2026-05-07 13:05 37.36461 112.75220 13134 ft 269 kts 356°
2026-05-07 13:06 37.38319 112.75100 12766 ft 267 kts 356°
2026-05-07 13:06 37.40182 112.74985 12384 ft 263 kts 356°
2026-05-07 13:06 37.41983 112.74875 12023 ft 257 kts 356°
2026-05-07 13:06 37.43755 112.74764 11659 ft 256 kts 356°
2026-05-07 13:07 37.45542 112.74654 11296 ft 254 kts 356°
2026-05-07 13:07 37.47312 112.74543 10933 ft 253 kts 356°
2026-05-07 13:07 37.49059 112.74435 10572 ft 252 kts 356°
2026-05-07 13:07 37.50793 112.74496 10198 ft 253 kts 12°